Cherry Point, NC

11:56 AM EDT on August 19, 2017 (GMT -0400)
Cherry Point Marine Corps Air Station

Weather History for KNKT - January, 2014

Change the Weather History Date:

Monday, January 27, 2014

  Actual Average Record
Temperature  
Mean Temperature 54 °F -  
Max Temperature 63 °F 52 °F 71 °F (2012)
Min Temperature 39 °F 33 °F 21 °F (2000)
Degree Days  
Heating Degree Days 12    
Growing Degree Days 4 (Base 50)    
Moisture  
Dew Point 36 °F    
Average Humidity 55    
Maximum Humidity 77    
Minimum Humidity 38    
Precipitation  
Precipitation 0.00 in - - ()
Sea Level Pressure  
Sea Level Pressure 29.90 in    
Wind  
Wind Speed 9 mph (SW)    
Max Wind Speed 24 mph    
Max Gust Speed 30 mph    
Visibility 10 miles    
Events      
Averages and records for this station are not official NWS values.
T = Trace of Precipitation, MM = Missing Value Source: NWS Daily Summary

Daily Weather History Graph

Daily Weather History Graph

Search for Another Location

Airport or City:

Trip Planner

Search our weather history database for the weather conditions in past years. The results will help you decide how hot, cold, wet, or windy it might be!

Date:

Astronomy

Jan. 27, 2014 Rise Set
Actual Time 7:09 AM EST 5:31 PM EST
Civil Twilight 6:42 AM EST 5:58 PM EST
Nautical Twilight 6:12 AM EST 6:28 PM EST
Astronomical Twilight 5:42 AM EST 6:58 PM EST
Moon 3:46 AM EST (1/27) 2:17 PM EST (1/27)
Length of Visible Light 11h 15m
Length of Day
10h 21m
Waning Crescent, 15% of the Moon is Illuminated
Jan 27
Waning Crescent
Jan 30
New
Feb 6
First Quarter
Feb 14
Full
Feb 22
Last Quarter

Hourly Weather History & Observations

Time (EST) Temp. Windchill Dew Point Humidity Pressure Visibility Wind Dir Wind Speed Gust Speed Precip Events Conditions
12:54 AM 46.9 °F - 35.1 °F 63% 29.94 in 10.0 mi SSW 10.4 mph - N/A   Clear
1:54 AM 48.0 °F - 35.1 °F 61% 29.93 in 10.0 mi SW 10.4 mph - N/A   Clear
2:54 AM 48.9 °F - 34.0 °F 56% 29.93 in 10.0 mi SW 9.2 mph - N/A   Clear
3:54 AM 44.1 °F 40.8 °F 33.1 °F 65% 29.93 in 10.0 mi SW 5.8 mph - N/A   Scattered Clouds
4:54 AM 46.0 °F 41.9 °F 33.1 °F 61% 29.92 in 10.0 mi SW 8.1 mph - N/A   Clear
5:54 AM 46.0 °F 41.9 °F 32.0 °F 58% 29.91 in 10.0 mi WSW 8.1 mph - N/A   Clear
6:54 AM 46.0 °F 43.1 °F 32.0 °F 58% 29.91 in 10.0 mi SW 5.8 mph - N/A   Clear
7:54 AM 48.0 °F - 30.9 °F 52% 29.92 in 10.0 mi SW 5.8 mph - N/A   Scattered Clouds
8:54 AM 50.0 °F - 32.0 °F 50% 29.92 in 10.0 mi SW 6.9 mph - N/A   Mostly Cloudy
9:54 AM 55.0 °F - 33.1 °F 43% 29.92 in 10.0 mi SSW 9.2 mph - N/A   Mostly Cloudy
10:54 AM 59.0 °F - 34.0 °F 39% 29.91 in 10.0 mi SW 8.1 mph - N/A   Scattered Clouds
11:54 AM 62.1 °F - 36.0 °F 38% 29.89 in 10.0 mi SW 16.1 mph 23.0 mph N/A   Scattered Clouds
12:54 PM 62.1 °F - 37.0 °F 39% 29.86 in 10.0 mi SSW 9.2 mph - N/A   Mostly Cloudy
1:54 PM 63.0 °F - 37.9 °F 40% 29.85 in 10.0 mi SW 9.2 mph - N/A   Scattered Clouds
2:54 PM 61.0 °F - 37.9 °F 42% 29.83 in 10.0 mi SSW 10.4 mph - N/A   Scattered Clouds
3:54 PM 60.1 °F - 37.0 °F 42% 29.82 in 10.0 mi South 10.4 mph - N/A   Scattered Clouds
4:54 PM 57.0 °F - 37.0 °F 47% 29.83 in 10.0 mi SSW 9.2 mph - N/A   Scattered Clouds
5:54 PM 53.1 °F - 37.9 °F 57% 29.83 in 10.0 mi South 6.9 mph - N/A   Clear
6:54 PM 52.0 °F - 39.9 °F 63% 29.87 in 10.0 mi SW 9.2 mph - N/A   Clear
7:54 PM 51.1 °F - 41.0 °F 68% 29.89 in 10.0 mi SW 8.1 mph - N/A   Clear
8:54 PM 48.9 °F - 39.9 °F 71% 29.92 in 10.0 mi SW 9.2 mph - N/A   Clear
9:54 PM 48.9 °F - 41.0 °F 74% 29.93 in 10.0 mi SW 5.8 mph - N/A   Clear
10:54 PM 48.9 °F - 42.1 °F 77% 29.97 in 10.0 mi NW 4.6 mph - N/A   Clear
11:54 PM 39.9 °F 29.5 °F 27.0 °F 60% 30.03 in 10.0 mi NNE 24.2 mph 29.9 mph N/A   Clear